sat.trackr.live / text

‹ back to catalog

STARLINK-30435

NORAD 57842 · 2023-141C

PAYLOAD ACTIVE UNKNOWN

§ Identity

Operator
Country
US
Launch date
2023-09-12
Launch site
AFWTR
Launch vehicle
Mass (kg)
RCS (m²)

Purposes: comms

External: N2YO · Heavens-Above · Gunter

§ Orbital elements

Epoch: 2026-09-20T06:09:23.793696Z

Period
94.01 min
Inclination
53.1580°
Eccentricity
0.0000907
Mean motion
15.31700763 rev/d
Perigee alt
470.1 km
Apogee alt
471.4 km
Semi-major
6,848.9 km
B*
1.3539e-5
RAAN
99.0400°
Arg perigee
106.4860°
Mean anomaly
253.6241°
Rev number
17,013

§ Raw data

STARLINK-304351 57842U 23141C   26263.25652539  .00000055  00000+0  13539-4 0  99972 57842  53.1580  99.0400 0000907 106.4860 253.6241 15.31700763170131

JSON: /api/v1/satellites/57842 · /tle

For live sub-satellite position, see the globe view (requires WebGL).

§ Visibility from observer

Set your observer location to see the next 7 days of passes ≥ 10°. The values pass through the URL so the page stays shareable.

No JS? Fill the form by hand. The geolocation button needs JavaScript.